Pescara, Italy

1:21 PM CEST on September 21, 2017 (GMT +0200)
Pescara

Weather History for LIBP - March, 2013

Change the Weather History Date:

Friday, March 29, 2013

  Actual Average Record
Temperature  
Mean Temperature 58 °F -  
Max Temperature 73 °F 64 °F 113 °F (2002)
Min Temperature 44 °F 45 °F 33 °F (2002)
Degree Days  
Heating Degree Days 6    
Growing Degree Days 8 (Base 50)    
Moisture  
Dew Point 47 °F    
Average Humidity 67    
Maximum Humidity 88    
Minimum Humidity 41    
Precipitation  
Precipitation 0.00 in 0.07 in - ()
Sea Level Pressure  
Sea Level Pressure 29.74 in    
Wind  
Wind Speed 5 mph ()    
Max Wind Speed 20 mph    
Max Gust Speed 33 mph    
Visibility 4.5 miles    
Events Fog    
Averages and records for this station are not official NWS values.
T = Trace of Precipitation, MM = Missing Value Source: Averaged Metar Reports

Daily Weather History Graph

Daily Weather History Graph

Search for Another Location

Airport or City:

Trip Planner

Search our weather history database for the weather conditions in past years. The results will help you decide how hot, cold, wet, or windy it might be!

Date:

Astronomy

Mar. 29, 2013 Rise Set
Actual Time 5:50 AM CET 6:25 PM CET
Civil Twilight 5:22 AM CET 6:54 PM CET
Nautical Twilight 4:49 AM CET 7:27 PM CET
Astronomical Twilight 4:14 AM CET 8:02 PM CET
Moon 9:10 PM CET (3/29) 6:44 AM CET (3/29)
Length of Visible Light 13h 31m
Length of Day
12h 34m
Waning Gibbous, 95% of the Moon is Illuminated
Mar 29
Waning Gibbous
Apr 3
Last Quarter
Apr 10
New
Apr 18
First Quarter
Apr 25
Full

Hourly Weather History & Observations

Time (CET) Temp. Dew Point Humidity Pressure Visibility Wind Dir Wind Speed Gust Speed Precip Events Conditions
12:50 AM 48.2 °F 42.8 °F 82% 29.80 in 1.2 mi Variable 1.2 mph - N/A   Mostly Cloudy
1:50 AM 46.4 °F 42.8 °F 87% 29.80 in 1.2 mi Variable 1.2 mph - N/A   Mostly Cloudy
2:00 AM 48.2 °F 44.6 °F 87% 29.80 in 0.9 mi Variable 1.2 mph - N/A   Mostly Cloudy
2:08 AM 46.4 °F 42.8 °F 87% 29.80 in 0.1 mi Variable 2.3 mph - N/A Fog Fog
2:25 AM 46.4 °F 42.8 °F 87% 29.77 in 0.4 mi Variable 1.2 mph - N/A Fog Fog
2:50 AM 44.6 °F 41.0 °F 87% 29.80 in 0.5 mi Variable 1.2 mph - N/A Fog Fog
3:26 AM 48.2 °F 44.6 °F 87% 29.77 in 1.2 mi Variable 2.3 mph - N/A   Scattered Clouds
3:50 AM 48.2 °F 44.6 °F 87% 29.77 in 1.2 mi Variable 2.3 mph - N/A   Scattered Clouds
4:50 AM 50.0 °F 44.6 °F 82% 29.74 in 2.5 mi Variable 2.3 mph - N/A   Partly Cloudy
5:50 AM 51.8 °F 48.2 °F 88% 29.74 in 6.2 mi South 6.9 mph - N/A   Scattered Clouds
6:50 AM 57.2 °F 48.2 °F 72% 29.74 in 6.2 mi South 6.9 mph - N/A   Scattered Clouds
8:50 AM 68.0 °F 50.0 °F 52% 29.74 in 6.2 mi SSW 19.6 mph - N/A   Scattered Clouds
9:50 AM 68.0 °F 50.0 °F 52% 29.74 in 6.2 mi SSW 19.6 mph 33.4 mph N/A   Scattered Clouds
10:50 AM 71.6 °F 48.2 °F 43% 29.74 in 6.2 mi SSW 19.6 mph - N/A   Scattered Clouds
11:50 AM 73.4 °F 50.0 °F 44% 29.74 in 6.2 mi SSW 17.3 mph - N/A   Scattered Clouds
12:50 PM 73.4 °F 50.0 °F 44% 29.71 in 6.2 mi SSW 17.3 mph - N/A   Scattered Clouds
1:50 PM 71.6 °F 46.4 °F 41% 29.71 in 6.2 mi SW 12.7 mph - N/A   Scattered Clouds
2:50 PM 62.6 °F 48.2 °F 59% 29.71 in 6.2 mi NNE 8.1 mph - N/A   Scattered Clouds
3:50 PM 62.6 °F 50.0 °F 63% 29.71 in 6.2 mi NE 8.1 mph - N/A   Mostly Cloudy
4:50 PM 59.0 °F 48.2 °F 67% 29.68 in 6.2 mi North 4.6 mph - N/A   Mostly Cloudy
5:50 PM 59.0 °F 50.0 °F 72% 29.71 in 6.2 mi West 4.6 mph - N/A   Mostly Cloudy
6:50 PM 59.0 °F 50.0 °F 72% 29.71 in 6.2 mi Variable 1.2 mph - N/A   Scattered Clouds
7:50 PM 59.0 °F 50.0 °F 72% 29.68 in 6.2 mi Variable 1.2 mph - N/A   Scattered Clouds
8:50 PM 64.4 °F 46.4 °F 52% 29.71 in 6.2 mi SW 10.4 mph - N/A   Scattered Clouds
9:50 PM 64.4 °F 44.6 °F 49% 29.71 in 6.2 mi SSW 12.7 mph - N/A   Scattered Clouds
10:50 PM 64.4 °F 44.6 °F 49% 29.68 in 6.2 mi SSW 13.8 mph - N/A   Partly Cloudy
11:50 PM 62.6 °F 44.6 °F 52% 29.71 in 6.2 mi Variable 3.5 mph - N/A   Partly Cloudy